GPS BIIRM-1 (PRN 17)

Last updated on June 16, 2019, 3:38 a.m. UTC

1 28874U 05038A   19165.41368876 -.00000084  00000-0  00000+0 0  9992
2 28874  56.3904  14.5999 0130501 262.0843 281.4927  2.00554618100487
UTC
Height (km)
Latitude
Longitude
Inclination
Orbital Period
UTC large
Height (km)
Speed (km/s)
/
Latitude / Longitude
Inclination (degrees)
Orbital Period (minutes)
Azimuth
Elevation
Range (km)
Doppler Factor
iOS Compass Heading
iOS Angle

Next 30 passes for location: Hong Kong

Rise time Rise Azimuth (degrees) Set time Set Azimuth (degrees) Duration Max altitude (degrees)

No matching passes for this satellites